Simultaneous Nadir Overpasses (SNOs) Predictions

Prediction of SNOs between GOES-17 and METOP-C Satellite Orbit:

Table of predicted SNOs for the next 14.0 days since TLE Epoch: 10/23/2021
Index Date Time (GOES-17) GOES-17 Lat,Lon METOP-C Lat,Lon Distance(km) Time Diff (sec)
1 10/24/2021 06:55:12 0.05,-137.22 -0.74,-140.61 387.78 80
2 10/25/2021 06:31:53 0.05,-137.22 0.40,-135.62 181.70 80
3 10/26/2021 18:50:45 -0.04,-137.23 0.63,-140.18 337.02 80
4 10/27/2021 18:32:47 -0.04,-137.23 -0.50,-135.19 232.06 80
5 10/29/2021 06:51:47 0.03,-137.22 -0.56,-139.78 292.58 80
6 10/30/2021 06:28:29 0.03,-137.21 0.58,-134.79 276.13 80
7 10/31/2021 18:47:21 -0.03,-137.21 0.46,-139.34 243.84 80
8 11/01/2021 18:29:23 -0.03,-137.20 -0.67,-134.36 324.56 80
9 11/03/2021 06:48:23 0.03,-137.18 -0.37,-138.95 200.91 80
10 11/04/2021 06:25:05 0.03,-137.17 0.77,-133.96 367.00 80
11 11/05/2021 18:43:57 -0.03,-137.16 0.29,-138.51 154.60 80
